DW6536 Weather Reports


time (UTC)temp
F
wind
direction
speed
knots
gust
knots
rain 1hr
in
rain 24hr
in
rain mn
in
humidity
%
barometer
mb
20230208161507 44 325 1.7 0.0 0.00 0.00 0.15 95 1017.5
20230208160005 44 333 1.7 0.0 0.00 0.00 0.13 95 1017.5
20230208154504 44 325 1.7 0.0 0.00 0.00 0.13 94 1017.3
20230208153002 45 312 2.6 0.0 0.00 0.00 0.13 94 1017.0
20230208151600 45 267 1.7 0.0 0.00 0.00 0.13 95 1017.0
20230208150107 45 53 1.7 0.0 0.00 0.00 0.13 95 1016.5
20230208144621 45 39 1.7 0.0 0.00 0.00 0.13 95 1016.9
20230208143102 45 323 0.9 0.0 0.00 0.00 0.13 96 1016.7
20230208141603 44 6 1.7 0.0 0.00 0.00 0.13 96 1016.4
20230208140056 44 4 1.7 0.0 0.00 0.00 0.13 95 1016.0
20230208134556 44 338 1.7 0.0 0.00 0.00 0.13 95 1016.5
20230208133053 45 322 1.7 0.0 0.00 0.00 0.13 95 1016.0
20230208131550 45 325 1.7 0.0 0.00 0.00 0.13 96 1015.7
20230208130049 45 297 0.9 0.0 0.00 0.00 0.13 96 1015.5
20230208124548 45 333 1.7 0.0 0.00 0.00 0.13 96 1015.4
20230208123047 46 326 0.9 0.0 0.00 0.00 0.13 96 1015.3
20230208121559 46 304 0.9 0.0 0.00 0.00 0.13 96 1015.1
20230208120049 46 293 0.9 0.0 0.00 0.00 0.13 96 1014.6
20230208114545 46 6 0.9 0.0 0.00 0.00 0.13 96 1014.3
20230208113046 45 311 0.9 0.0 0.00 0.00 0.13 96 1014.6
20230208111559 45 10 0.9 0.0 0.00 0.00 0.13 96 1014.6
20230208110046 46 292 0.9 0.0 0.00 0.00 0.13 96 1014.5
20230208104546 46 343 0.9 0.0 0.00 0.00 0.13 96 1014.8
20230208103043 46 333 0.9 0.0 0.00 0.00 0.12 96 1014.6
20230208101541 46 1 1.7 0.0 0.00 0.00 0.12 96 1014.5
20230208100040 46 326 1.7 0.0 0.00 0.00 0.12 96 1014.5
20230208094542 46 333 1.7 0.0 0.00 0.00 0.11 96 1014.3
20230208093039 46 338 1.7 0.0 0.00 0.00 0.11 96 1014.4
20230208091536 46 360 1.7 0.0 0.00 0.00 0.11 96 1014.2
20230208090036 46 8 1.7 0.0 0.00 0.00 0.11 96 1014.3
20230208084539 46 353 1.7 0.0 0.00 0.00 0.11 96 1014.9
20230208083028 47 12 1.7 0.0 0.00 0.00 0.11 96 1015.2
20230208081530 47 349 1.7 0.0 0.00 0.00 0.11 96 1015.2
20230208080036 47 27 1.7 0.0 0.00 0.00 0.11 96 1015.2
20230208074523 47 305 1.7 0.0 0.00 0.00 0.11 96 1015.3
20230208073021 48 355 1.7 0.0 0.00 0.00 0.11 96 1015.5
20230208071519 48 357 1.7 0.0 0.00 0.00 0.11 96 1015.6
20230208070018 48 307 1.7 0.0 0.00 0.00 0.11 96 1015.6
20230208064536 48 317 0.9 0.0 0.00 0.00 0.10 96 1015.6
20230208063032 48 352 1.7 0.0 0.00 0.00 0.09 95 1015.8
20230208061513 48 338 1.7 0.0 0.00 0.00 0.07 95 1015.8
20230208060009 48 15 1.7 0.0 0.00 0.00 0.00 95 1015.8
20230208054515 49 359 1.7 0.0 0.00 0.00 0.33 95 1016.0
20230208053028 49 23 2.6 0.0 0.00 0.00 0.33 95 1015.6
20230208051519 49 358 2.6 0.0 0.00 0.00 0.33 95 1015.5
20230208050009 49 307 2.6 0.0 0.00 0.00 0.32 95 1015.7
20230208044508 49 353 1.7 0.0 0.00 0.00 0.28 95 1015.8
20230208043001 50 14 0.9 0.0 0.00 0.00 0.28 96 1015.8
20230208041604 50 343 1.7 0.0 0.00 0.00 0.25 95 1015.5
20230208040127 50 108 1.7 0.0 0.00 0.00 0.25 95 1015.3
20230208034556 50 290 0.9 0.0 0.00 0.00 0.24 95 1015.4
20230208033056 51 322 1.7 0.0 0.00 0.00 0.24 95 1015.4
20230208031603 51 343 2.6 0.0 0.00 0.00 0.24 95 1015.2
20230208030050 51 11 1.7 0.0 0.00 0.00 0.24 95 1015.1
20230208024548 52 2 2.6 0.0 0.00 0.00 0.23 95 1014.8
20230208023045 52 324 1.7 0.0 0.00 0.00 0.23 95 1014.7
20230208021542 53 343 2.6 0.0 0.00 0.00 0.23 94 1014.5
20230208020042 54 307 1.7 0.0 0.00 0.00 0.22 94 1014.3
20230208014536 55 338 1.7 0.0 0.00 0.00 0.21 93 1014.2
20230208013030 58 270 2.6 0.0 0.00 0.00 0.20 90 1013.9
20230208011533 66 311 0.9 0.0 0.00 0.00 0.20 96 1013.5
20230208010029 66 276 1.7 0.0 0.00 0.00 0.19 96 1012.9
20230208004527 66 151 1.7 0.0 0.00 0.00 0.19 96 1012.7
20230208003029 66 158 1.7 0.0 0.00 0.00 0.19 96 1012.8
20230208001526 66 172 1.7 0.0 0.00 0.00 0.17 95 1012.6
20230208000024 66 120 1.7 0.0 0.00 0.00 0.16 95 1012.4
20230207234529 66 103 2.6 0.0 0.00 0.00 0.15 95 1012.2
20230207233024 67 126 1.7 0.0 0.00 0.00 0.15 95 1012.5
20230207231524 67 183 0.9 0.0 0.00 0.00 0.15 95 1012.3
20230207230023 67 185 0.0 0.0 0.00 0.00 0.15 95 1012.4
20230207224522 67 135 0.0 0.0 0.00 0.00 0.14 94 1012.4
20230207223033 67 162 0.0 0.0 0.00 0.00 0.12 93 1012.3
20230207221525 68 145 0.9 0.0 0.00 0.00 0.04 91 1012.2
20230207220020 69 122 0.9 0.0 0.00 0.00 0.03 90 1012.2
20230207214520 69 129 0.9 0.0 0.00 0.00 0.03 88 1012.1
20230207213020 69 143 0.0 0.0 0.00 0.00 0.03 91 1012.3
20230207211518 69 130 0.0 0.0 0.00 0.00 0.03 91 1012.1
20230207210023 68 123 0.9 0.0 0.00 0.00 0.03 91 1012.4
20230207204518 69 141 0.9 0.0 0.00 0.00 0.03 91 1012.2
20230207203018 69 124 0.9 0.0 0.00 0.00 0.03 89 1012.6
20230207201517 70 162 1.7 0.0 0.00 0.00 0.01 84 1012.7
20230207200016 70 135 0.9 0.0 0.00 0.00 0.01 85 1012.7
20230207194516 70 154 1.7 0.0 0.00 0.00 0.01 85 1012.9
20230207193014 70 163 0.9 0.0 0.00 0.00 0.01 85 1013.0
20230207191519 69 211 0.9 0.0 0.00 0.00 0.01 85 1013.1
20230207190012 69 158 0.9 0.0 0.00 0.00 0.01 86 1013.3
20230207184524 69 134 0.9 0.0 0.00 0.00 0.01 87 1013.7
20230207183009 69 120 0.0 0.0 0.00 0.00 0.01 88 1014.0
20230207181506 68 121 0.9 0.0 0.00 0.00 0.01 89 1014.1
20230207180008 68 213 0.9 0.0 0.00 0.00 0.01 89 1014.2
20230207174513 68 143 0.9 0.0 0.00 0.00 0.01 90 1014.2
20230207173007 67 198 0.0 0.0 0.00 0.00 0.01 92 1014.2
20230207171502 67 158 0.9 0.0 0.00 0.00 0.01 93 1014.3
20230207170109 67 226 0.9 0.0 0.00 0.00 0.01 93 1014.2
20230207164605 66 171 0.0 0.0 0.00 0.00 0.01 92 1014.3
20230207163108 67 172 0.9 0.0 0.00 0.00 0.01 90 1014.3